Location: Grange Cautun
(44.5000°N, 6.9667°E)
Time: 02:46:16
(UTC+00:00)

Daily predictions for brighter satellites

Satellite Brightness Start Highest point End
(mag) Time Altitude Azimuth Time Altitude Azimuth Time Altitude Azimuth
Cosmos 1758 4.1 00:00:28 10° NNW 00:03:41 42° WNW 00:03:41 42° WNW
Cosmos 1867 3.7 00:05:01 47° WSW 00:06:29 68° NW 00:11:58 10° NNE
Cosmos 2221 Rocket 3.9 00:06:47 53° W 00:06:53 53° WNW 00:11:14 10° N
Cosmos 1674 Rocket 3.4 00:06:55 79° WNW 00:06:55 79° WNW 00:11:15 10° N
NOSS 2-2 (D) 4.5 00:01:56 10° NNW 00:07:03 72° NE 00:11:38 22° SE
Cosmos 1461 3.4 00:03:14 10° NW 00:06:31 49° WNW 00:06:31 49° WNW
Cosmos 2298 Rocket 3.9 00:07:41 62° SSE 00:08:27 74° ESE 00:13:45 10° NNE
Cosmos 1674 3.7 00:10:51 38° WNW 00:10:51 38° WNW 00:13:57 10° N
USA 306 3.3 00:11:53 50° E 00:11:53 50° E 00:15:11 10° ENE
Cosmos 1238 Rocket 4.2 00:10:40 10° NNW 00:12:06 24° NW 00:12:06 24° NW
Thor Agena Rocket 4.2 00:09:22 10° NNE 00:14:25 44° E 00:15:34 38° SE
USA 307 3.4 00:15:20 47° E 00:15:20 47° E 00:18:38 10° ENE
ATLAS CENTAUR R/B 3.3 00:11:20 10° WNW 00:13:59 22° W 00:13:59 22° W
SL-16 R/B 3.8 00:16:08 19° ESE 00:17:40 21° E 00:21:49 10° NE
ERBS 4.3 00:22:52 20° ENE 00:22:52 20° ENE 00:24:02 10° ENE
Cosmos 1980 3.7 00:20:38 55° S 00:21:48 72° ESE 00:27:27 10° NNE
Cosmos 1378 Rocket 3.8 00:22:19 56° W 00:22:30 56° WNW 00:26:53 10° N
Cosmos 2333 Rocket 3.7 00:19:42 18° W 00:22:49 28° NW 00:27:41 10° N
ATLAS 5 CENTAUR R/B 2.5 00:12:36 10° NW 00:23:47 72° WSW 00:24:39 57° S
Cosmos 468 4.4 00:18:40 10° NNW 00:23:51 65° WSW 00:24:27 60° SW
CZ-4C R/B 3.1 00:17:08 10° NW 00:24:28 61° WSW 00:27:53 37° S
Cosmos 1455 Rocket 4.2 00:20:37 10° N 00:24:47 37° ENE 00:26:10 29° ESE
USA 215 4.4 00:20:42 10° NE 00:26:44 41° NNW 00:32:46 10° W
Cosmos 332 Rocket 4.1 00:28:23 49° SE 00:28:59 52° ESE 00:33:39 10° NNE
NOSS 0 Rocket 3.9 00:29:22 45° SW 00:31:24 80° WNW 00:37:41 10° NNE
USA 32 3.9 00:35:15 55° S 00:36:26 90° NE 00:41:44 10° N
Meteor 2-10 Rocket 3.7 00:33:37 10° N 00:39:19 76° E 00:41:17 41° SSE
Cosmos 1975 Rocket 3.4 00:39:39 48° SE 00:40:22 55° E 00:44:44 10° NNE
Cosmos 1745 Rocket 4.3 00:36:57 10° NNW 00:42:56 51° W 00:44:35 40° SW
ADEOS Rocket 4.3 00:42:18 20° W 00:42:59 20° W 00:47:14 10° NW
Cosmos 839 Rocket 4.2 00:38:19 10° NW 00:44:44 76° WSW 00:49:11 26° SSE
USA 308 2.7 00:44:46 75° WSW 00:45:05 84° NW 00:49:18 10° NE
Cosmos 2219 Rocket 3.9 00:42:56 15° W 00:46:09 24° NW 00:50:41 10° N
Cosmos 1025 Rocket 3.5 00:47:03 45° SE 00:47:51 52° E 00:52:03 10° NNE
Meteor 2-12 Rocket 4.5 00:44:37 10° NNW 00:50:36 61° W 00:52:26 43° SSW
Cosmos 1455 4.2 00:47:49 10° NNE 00:50:50 23° ENE 00:52:38 16° ESE
GP-B 3.1 00:53:02 10° N 00:57:28 68° W 00:58:07 58° SW
Meteor 2-5 Rocket 3.9 00:55:37 37° SSE 00:57:54 67° E 01:03:32 10° NNE
Lacrosse 5 2.2 00:58:31 44° SSE 00:59:27 50° SE 01:04:23 10° ENE
CZ-2D R/B 2.5 00:55:06 10° NNE 01:00:25 58° E 01:02:28 35° SSE
Cosmos 1300 3.2 00:58:08 10° NNW 01:01:27 43° WNW 01:01:27 43° WNW
USA 267 3.9 01:02:15 32° SW 01:02:20 32° SW 01:08:06 10° WNW
SL-14 R/B 4.4 01:02:27 30° WNW 01:02:33 30° WNW 01:06:01 10° NNW
Cosmos 371 Rocket 4.3 01:06:03 30° W 01:07:31 37° WNW 01:12:03 10° N
USA 305 3.5 01:07:08 33° W 01:08:38 52° NNW 01:12:43 10° NE
Cosmos 1544 Rocket 4.0 01:06:50 10° N 01:11:13 59° E 01:13:10 30° SSE
USA 229 DEB 4.2 01:04:37 10° NW 01:11:41 47° WSW 01:15:06 30° S
USA 229 4.2 01:04:43 10° NW 01:11:47 47° WSW 01:15:15 30° S
Cosmos 2237 Rocket 2.7 01:11:28 31° WSW 01:13:50 50° WNW 01:19:23 10° NNE
Cosmos 304 Rocket 4.4 01:17:17 34° WSW 01:18:47 45° WNW 01:23:26 10° N
SL-16 R/B 2.6 01:14:42 19° SSE 01:19:18 80° ENE 01:25:33 10° NNW
AQUA 4.3 01:15:03 10° NNE 01:19:43 54° E 01:21:49 30° SSE
Helios 1A 4.4 01:16:52 11° SE 01:20:29 36° ENE 01:24:22 10° N
Lacrosse 5 rocket 1.7 01:21:54 42° SSE 01:22:18 44° SE 01:26:09 10° ENE
SAR-Lupe-2 4.2 01:19:47 10° NNE 01:23:18 49° E 01:24:09 39° SE
SME Rocket 3.4 01:24:34 43° SW 01:25:09 46° W 01:29:49 10° NNW
Cosmos 1953 4.4 01:24:24 10° NW 01:26:26 15° W 01:26:26 15° W
Cosmos 2074 Rocket 4.0 01:23:12 10° N 01:29:32 86° E 01:33:59 21° S
Resurs 1-4 Rocket 2.1 01:24:20 10° NNE 01:29:36 78° WNW 01:31:56 34° SSW
Cosmos 2297 3.9 01:28:26 10° NNW 01:34:13 75° ENE 01:39:56 10° SSE
Cosmos 1943 Rocket 2.1 01:28:32 10° NNW 01:34:15 87° WSW 01:39:28 12° SSE
CRYOSAT 2 4.3 01:38:47 25° S 01:41:39 85° E 01:46:34 10° N
Cosmos 2184 Rocket 3.9 01:38:08 10° N 01:44:24 77° W 01:48:45 21° S
Cosmos 2278 Rocket 3.5 01:40:52 10° NW 01:44:55 20° W 01:45:23 20° WSW
ADEOS II 2.1 01:40:16 10° NNE 01:45:33 79° ESE 01:48:40 25° S
IDEFIX/ARIANE 42P 2.8 01:41:12 10° NNE 01:46:28 67° ESE 01:49:52 22° S
Cosmos 2084 Rocket 4.0 01:49:15 27° W 01:50:48 41° NW 01:54:26 10° NNE
Cosmos 292 Rocket 4.0 01:48:10 26° S 01:50:48 63° ESE 01:55:34 10° NNE
USA 306 4.3 01:47:34 13° W 01:50:51 33° NNW 01:54:40 10° NE
USA 307 4.2 01:51:04 13° W 01:54:18 35° NNW 01:58:11 10° NE
ERBS 4.2 01:54:54 14° WNW 01:56:36 21° NNW 01:59:01 10° NNE
NPP 3.9 01:52:18 10° N 01:57:34 55° WNW 02:00:36 25° SW
Cosmos 2369 Rocket 2.7 01:53:57 10° NNW 01:59:29 60° ENE 02:05:00 10° SE
SL-16 R/B 2.4 01:58:00 25° SW 02:01:17 60° WNW 02:06:55 10° NNE
Cosmos 614 Rocket 3.9 01:57:57 10° NNW 02:03:10 81° WSW 02:08:22 10° SSE
Cosmos 2228 3.3 01:58:50 10° N 02:03:12 66° E 02:07:29 10° SSE
IRS-1D 4.1 01:58:11 10° NNE 02:03:28 57° E 02:07:54 14° S
EO 1 Del DPAF 2.9 02:00:10 10° NNE 02:03:42 83° WNW 02:05:16 31° SSW
Cosmos 2251 Rocket 3.9 01:59:55 10° NNW 02:05:10 66° ENE 02:10:25 10° SSE
Meteor 1-28 Rocket 3.1 02:03:36 26° S 02:05:33 63° W 02:09:15 10° NNW
COSMOS 2455 2.8 02:04:48 23° SSW 02:08:48 88° ESE 02:14:52 10° NNE
Cosmos 1656 Rocket 4.3 02:03:32 10° NNW 02:08:53 56° ENE 02:14:11 10° SE
Cosmos 1536 Rocket 3.7 02:08:03 26° SSW 02:10:24 58° W 02:14:45 10° N
COSMOS 2441 4.4 02:13:53 10° NNE 02:18:47 80° ESE 02:22:48 15° S
Nadezhda 1 Rocket 4.2 02:15:05 19° SSW 02:19:48 62° W 02:26:03 10° N
MSX 3.8 02:17:45 10° NNE 02:23:33 80° WNW 02:28:25 15° SSW
Cosmos 1603 4.3 02:19:47 12° S 02:24:48 53° ESE 02:30:19 10° NE
MOS 1 Rocket 3.9 02:23:23 21° SW 02:25:21 31° W 02:29:11 10° NNW
Cosmos 1455 3.5 02:23:15 10° NW 02:26:13 23° W 02:27:23 20° WSW
Cosmos 1271 Rocket 3.2 02:26:35 10° NNW 02:30:11 40° W 02:32:44 17° SSW
Cosmos 1606 Rocket 3.5 02:29:57 10° N 02:34:24 87° WSW 02:38:46 10° S
ALOS 3.6 02:33:28 10° NNE 02:37:48 38° E 02:42:08 10° SSE
CZ-2C R/B 3.7 02:35:10 10° NNE 02:40:00 40° E 02:44:40 10° SSE
CZ-2D R/B 3.7 02:36:00 10° NNW 02:40:00 22° WNW 02:43:47 11° WSW
Lacrosse 5 2.9 02:37:45 10° W 02:42:33 40° NNW 02:47:22 10° NE
Helios 1B rocket 2.6 02:40:36 10° NNE 02:44:40 72° ESE 02:48:43 10° S
Cosmos 2366 rocket 4.2 02:40:31 10° N 02:46:41 77° E 02:52:53 10° SSE
Cosmos 2341 Rocket 4.1 02:40:50 10° NNW 02:47:13 75° W 02:53:35 10° S
BREEZE-M DEB (TANK) 2.6 02:47:13 13° SW 02:51:19 60° SSE 02:53:39 10° ENE
Meteor 2-1 Rocket 4.3 02:46:03 10° NNW 02:51:47 67° W 02:57:21 10° S
Cosmos 407 Rocket 3.5 02:47:46 10° NNW 02:53:07 86° WSW 02:58:23 10° SSE
SL-8 Rocket 4.0 02:47:37 10° N 02:53:58 80° W 03:00:17 10° S
Cosmos 1371 Rocket 4.4 02:49:52 10° S 02:54:57 62° ESE 03:00:04 10° NNE
SL-19 R/B 4.5 02:48:57 10° NNE 02:55:06 77° WNW 03:00:53 10° SSW
Cosmos 1328 3.9 02:52:13 10° SSW 02:56:04 60° W 03:00:01 10° N
Helios 1A 4.4 02:53:26 13° SW 02:56:05 21° W 02:59:21 10° NW
Cosmos 1943 3.2 02:50:42 11° SSW 02:56:14 80° WNW 03:01:58 10° NNE
Genesis I 3.3 02:56:34 10° NW 03:00:39 84° NE 03:04:37 10° SE
Lacrosse 5 rocket 2.6 02:57:55 10° W 03:01:28 32° NNW 03:05:13 10° NE
SL-16 R/B 4.0 02:59:47 10° SW 03:03:34 17° W 03:07:33 10° NW
Meteor 1-29 4.2 03:00:37 10° NNE 03:03:42 38° E 03:06:45 10° S
Cosmos 1140 Rocket 3.5 02:58:50 10° NNW 03:04:03 66° WSW 03:09:12 10° S
Lacrosse 4 Rocket 3.2 03:04:50 10° S 03:08:32 28° ESE 03:12:11 10° NE
Resurs 1-4 Rocket 4.2 03:06:31 10° NNW 03:08:32 12° NW 03:10:34 10° WNW
SeaSat 1 3.6 03:04:58 10° NE 03:09:38 41° ESE 03:14:16 10° S
Cosmos 1892 Rocket 3.8 03:05:27 10° SSW 03:09:50 58° W 03:14:17 10° N
IRS-1C 4.3 03:06:14 10° NNE 03:11:37 78° ESE 03:16:56 10° S
Cosmos 1726 Rocket 4.0 03:09:43 10° NNW 03:13:53 42° W 03:18:00 10° SSW
SL-08 R/B 4.2 03:09:57 10° SSE 03:14:24 53° ENE 03:18:57 10° N
Cosmos 1954 Rocket 4.5 03:11:21 10° NNW 03:16:42 69° ENE 03:21:59 10° SSE
Cosmos 1943 Rocket 4.0 03:14:44 10° WNW 03:17:05 13° W 03:19:26 10° WSW
FENGYUN 3A 3.7 03:12:22 10° N 03:17:46 78° WNW 03:23:08 10° SSW
NOSS 3-3 (A) 4.1 03:13:58 10° SW 03:19:34 62° NW 03:26:04 10° NNE
NOSS 3-3 (C) 4.1 03:14:03 10° SW 03:19:40 63° NW 03:26:10 10° NNE
